Weather History for Wausau, WI

Change the Weather History Date:

Sunday, March 10, 2013

  Actual Average Record
Temperature  
Mean Temperature 33 °F 27 °F  
Max Temperature 37 °F 37 °F 61 °F (2012)
Min Temperature 29 °F 18 °F -15 °F (1972)
Degree Days  
Heating Degree Days 32 38  
Month to date heating degree days 415 394  
Since 1 July heating degree days 6239 6530  
Cooling Degree Days 0 0  
Month to date cooling degree days 0 0  
Year to date cooling degree days 0 0  
Moisture  
Dew Point 31 °F    
Average Humidity 91    
Maximum Humidity 100    
Minimum Humidity 82    
Precipitation  
Precipitation 0.59 in 0.06 in 1.09 in (1973)
Month to date precipitation 0.88 0.50  
Year to date precipitation 4.03 2.44  
Snow  
Snow 3.00 in 0.40 in 10.50 in (1956)
Month to date snowfall 3.2 4.0  
Since 1 July snowfall 59.2 49.3  
Snow Depth 13.00 in    
Sea Level Pressure  
Sea Level Pressure 29.78 in    
Wind  
Wind Speed 7 mph (NNE)    
Max Wind Speed 20 mph    
Max Gust Speed 35 mph    
Visibility 3 miles    
Events Fog , Rain , Snow , Thunderstorm    
T = Trace of Precipitation, MM = Missing Value Source: NWS Daily Summary

Daily Weather History Graph

Daily Weather History Graph

Search for Another Location

Airport:

Trip Planner

Search our weather history database for the weather conditions in past years. The results will help you decide how hot, cold, wet, or windy it might be!

Date:

Astronomy

Mar. 10, 2013 Rise Set
Actual Time 7:19 AM CDT 6:58 PM CDT
Civil Twilight 6:50 AM CDT 7:27 PM CDT
Nautical Twilight 6:16 AM CDT 8:01 PM CDT
Astronomical Twilight 5:42 AM CDT 8:36 PM CDT
Moon 6:21 AM CDT (3/10) 6:05 PM CDT (3/10)
Length of Visible Light 12h 37m
Length of Day
11h 38m
Waning Crescent, 2% of the Moon is Illuminated
Mar 10
Waning Crescent
Mar 11
New
Mar 19
First Quarter
Mar 27
Full
Apr 2
Last Quarter

Hourly Weather History & Observations

Time (CDT) Temp. Windchill Dew Point Humidity Pressure Visibility Wind Dir Wind Speed Gust Speed Precip Events Conditions
12:03 AM 35.6 °F 29.9 °F 33.8 °F 93% 29.75 in 1.8 mi SE 6.9 mph - 0.01 in Rain Light Rain
12:07 AM 35.6 °F 30.7 °F 33.8 °F 93% 29.75 in 2.0 mi SE 5.8 mph - 0.01 in Rain Light Rain
12:17 AM 35.6 °F 31.7 °F 33.8 °F 93% 29.74 in 3.0 mi SE 4.6 mph - 0.01 in   Overcast
12:36 AM 35.6 °F 32.8 °F 33.8 °F 93% 29.74 in 2.5 mi ESE 3.5 mph - 0.01 in   Overcast
12:43 AM 35.6 °F 32.8 °F 33.8 °F 93% 29.74 in 1.8 mi ESE 3.5 mph - 0.01 in Rain Light Rain
12:54 AM 34.0 °F 31.0 °F 34.0 °F 100% 29.79 in 2.0 mi SE 3.5 mph - 0.01 in   Overcast
1:18 AM 35.6 °F 32.8 °F 33.8 °F 93% 29.75 in 3.0 mi SSE 3.5 mph - 0.01 in Rain Light Rain
1:38 AM 35.6 °F 32.8 °F 33.8 °F 93% 29.74 in 2.5 mi SSE 3.5 mph - 0.01 in   Overcast
1:52 AM 33.8 °F 30.8 °F 33.8 °F 100% 29.73 in 1.2 mi SSE 3.5 mph - 0.01 in   Overcast
1:54 AM 34.0 °F 31.0 °F 34.0 °F 100% 29.78 in 1.0 mi SSE 3.5 mph - 0.01 in   Overcast
3:04 AM 33.8 °F - 33.8 °F 100% 29.73 in 0.5 mi Calm Calm - 0.00 in Fog , Rain Light Rain
3:54 AM 34.0 °F - 34.0 °F 100% 29.78 in 0.2 mi Calm Calm - 0.00 in Fog Fog
4:54 AM 34.0 °F - 34.0 °F 100% 29.78 in 0.5 mi Calm Calm - 0.00 in Fog Fog
5:54 AM 34.0 °F - 33.1 °F 96% 29.78 in 0.2 mi Calm Calm - 0.00 in Fog , Rain Light Rain
6:35 AM 33.8 °F - 33.8 °F 100% 29.71 in 2.0 mi Calm Calm - N/A   Overcast
6:46 AM 33.8 °F - 33.8 °F 100% 29.72 in 3.0 mi Calm Calm - N/A   Overcast
7:13 AM 33.8 °F - 33.8 °F 100% 29.72 in 2.5 mi Calm Calm - N/A   Overcast
7:21 AM 33.8 °F - 33.8 °F 100% 29.73 in 3.0 mi Calm Calm - N/A   Overcast
7:54 AM 34.0 °F - 33.1 °F 96% 29.81 in 3.0 mi Calm Calm - N/A   Overcast
8:08 AM 33.8 °F - 33.8 °F 100% 29.76 in 1.8 mi Calm Calm - N/A   Overcast
8:46 AM 33.8 °F 28.6 °F 33.8 °F 100% 29.77 in 2.0 mi NW 5.8 mph - 0.00 in Rain Light Rain
8:54 AM 34.0 °F 28.8 °F 33.1 °F 96% 29.83 in 1.8 mi NW 5.8 mph - 0.00 in Rain Light Rain
9:18 AM 35.6 °F 29.2 °F 33.8 °F 93% 29.80 in 2.0 mi NW 8.1 mph - 0.02 in Rain Light Rain
9:36 AM 35.6 °F 29.9 °F 33.8 °F 93% 29.80 in 2.5 mi North 6.9 mph - 0.03 in Rain Light Rain
9:54 AM 35.1 °F 31.0 °F 34.0 °F 96% 29.86 in 4.0 mi North 4.6 mph - 0.04 in Rain Light Rain
10:15 AM 35.6 °F 31.7 °F 33.8 °F 93% 29.81 in 5.0 mi North 4.6 mph - 0.01 in Rain Light Rain
10:54 AM 35.1 °F 30.1 °F 34.0 °F 96% 29.87 in 9.0 mi North 5.8 mph - 0.01 in Rain Light Rain
11:54 AM 35.1 °F 27.9 °F 33.1 °F 92% 29.90 in 4.0 mi North 9.2 mph - 0.02 in Rain Light Rain
12:06 PM 35.6 °F 29.9 °F 33.8 °F 93% 29.85 in 3.0 mi North 6.9 mph - 0.01 in Rain Light Rain
12:41 PM 35.6 °F 28.6 °F 33.8 °F 93% 29.82 in 10.0 mi North 9.2 mph - 0.02 in Rain Light Rain
12:49 PM 35.6 °F 27.1 °F 32.0 °F 87% 29.82 in 10.0 mi North 12.7 mph 19.6 mph 0.02 in Rain Light Rain
12:54 PM 36.0 °F 28.0 °F 32.0 °F 86% 29.86 in 10.0 mi NNE 11.5 mph 19.6 mph 0.02 in Rain Light Rain
1:02 PM 35.6 °F 26.2 °F 32.0 °F 87% 29.81 in 10.0 mi North 15.0 mph 18.4 mph 0.00 in   Overcast
1:16 PM 37.4 °F 29.8 °F 32.0 °F 81% 29.81 in 10.0 mi North 11.5 mph 20.7 mph 0.00 in   Overcast
1:43 PM 37.4 °F 30.8 °F 30.2 °F 75% 29.81 in 10.0 mi NNE 9.2 mph - 0.00 in   Overcast
1:54 PM 37.0 °F 31.0 °F 32.0 °F 82% 29.87 in 10.0 mi North 8.1 mph 18.4 mph 0.00 in   Overcast
2:54 PM 36.0 °F 28.5 °F 30.9 °F 82% 29.85 in 10.0 mi NNE 10.4 mph 17.3 mph 0.00 in   Overcast
3:54 PM 36.0 °F 28.5 °F 30.9 °F 82% 29.85 in 10.0 mi NE 10.4 mph - 0.00 in   Overcast
4:54 PM 36.0 °F 27.1 °F 30.0 °F 79% 29.85 in 10.0 mi NNE 13.8 mph 18.4 mph N/A   Overcast
5:54 PM 35.1 °F 28.6 °F 30.0 °F 82% 29.85 in 5.0 mi NNE 8.1 mph - 0.01 in Rain Light Rain
6:21 PM 33.8 °F 25.8 °F 30.2 °F 87% 29.79 in 2.0 mi NE 10.4 mph 21.9 mph 0.01 in Snow Light Snow
6:32 PM 33.8 °F 25.8 °F 30.2 °F 87% 29.80 in 1.5 mi NE 10.4 mph 21.9 mph 0.01 in Snow Light Snow
6:54 PM 34.0 °F 26.0 °F 30.9 °F 89% 29.84 in 1.5 mi NE 10.4 mph 16.1 mph 0.02 in Snow Light Snow
7:12 PM 33.8 °F 26.4 °F 30.2 °F 87% 29.79 in 1.8 mi NE 9.2 mph 17.3 mph 0.01 in Snow Light Snow
7:29 PM 33.8 °F 27.0 °F 30.2 °F 87% 29.78 in 2.5 mi NNE 8.1 mph - 0.02 in Snow Light Snow
7:43 PM 33.8 °F 27.0 °F 30.2 °F 87% 29.78 in 1.5 mi NNE 8.1 mph - 0.03 in Snow Light Snow
7:54 PM 33.1 °F 25.5 °F 30.9 °F 92% 29.83 in 1.2 mi NE 9.2 mph - 0.03 in Snow Light Snow
8:12 PM 33.8 °F 26.4 °F 30.2 °F 87% 29.78 in 1.2 mi NE 9.2 mph - 0.02 in Snow Light Snow
8:25 PM 33.8 °F 25.3 °F 30.2 °F 87% 29.77 in 1.2 mi NNE 11.5 mph 16.1 mph 0.03 in Snow Light Snow
8:54 PM 33.1 °F 23.9 °F 28.9 °F 85% 29.81 in 1.8 mi NE 12.7 mph 25.3 mph 0.04 in Snow Light Snow
9:01 PM 33.8 °F 23.9 °F 28.4 °F 81% 29.76 in 2.5 mi NE 15.0 mph 26.5 mph 0.00 in Snow Light Snow
9:08 PM 32.0 °F 23.0 °F 28.4 °F 87% 29.75 in 3.0 mi NE 11.5 mph 23.0 mph 0.00 in Snow Light Snow
9:23 PM 32.0 °F 23.6 °F 28.4 °F 87% 29.74 in 1.8 mi NNE 10.4 mph 23.0 mph 0.01 in Snow Light Snow
9:42 PM 32.0 °F 24.8 °F 28.4 °F 87% 29.74 in 1.0 mi NNE 8.1 mph 19.6 mph 0.03 in Snow Light Snow
9:54 PM 32.0 °F 22.5 °F 28.9 °F 88% 29.79 in 1.5 mi NE 12.7 mph 19.6 mph 0.04 in Snow Light Snow
10:38 PM 30.2 °F 19.8 °F 28.4 °F 93% 29.74 in 0.8 mi NNE 13.8 mph 25.3 mph 0.04 in Snow Light Snow
10:42 PM 30.2 °F 17.8 °F 28.4 °F 93% 29.74 in 0.8 mi NNE 19.6 mph 34.5 mph 0.04 in Snow , Thunderstorm Light Thunderstorms and Snow
10:54 PM 30.0 °F 21.7 °F 28.0 °F 92% 29.79 in 0.8 mi NNE 9.2 mph 24.2 mph 0.05 in Snow , Thunderstorm Light Thunderstorms and Snow
11:01 PM 30.2 °F 20.2 °F 28.4 °F 93% 29.74 in 0.5 mi NNE 12.7 mph 19.6 mph 0.00 in Fog , Snow Snow
11:54 PM 28.9 °F 18.6 °F 27.0 °F 92% 29.75 in 0.5 mi NNE 12.7 mph 21.9 mph 0.07 in Fog , Snow Snow
12:12 AM 28.4 °F 20.4 °F 26.6 °F 93% 29.70 in 1.2 mi North 8.1 mph 19.6 mph 0.01 in Snow Light Snow
12:19 AM 28.4 °F 20.4 °F 26.6 °F 93% 29.69 in 1.0 mi North 8.1 mph 19.6 mph 0.02 in Snow Light Snow
12:24 AM 28.4 °F 20.4 °F 26.6 °F 93% 29.69 in 0.8 mi North 8.1 mph - 0.02 in Snow Light Snow
12:34 AM 28.4 °F 19.7 °F 26.6 °F 93% 29.69 in 0.5 mi NNE 9.2 mph - 0.04 in Fog , Snow Snow
12:54 AM 28.9 °F 21.1 °F 27.0 °F 92% 29.73 in 0.5 mi North 8.1 mph - 0.06 in Fog , Snow Snow